PDT,Max TemperatureF,Mean TemperatureF,Min TemperatureF,Max Dew PointF,MeanDew PointF,Min DewpointF,Max Humidity, Mean Humidity, Min Humidity, Max Sea Level PressureIn, Mean Sea Level PressureIn, Min Sea Level PressureIn, Max VisibilityMiles, Mean VisibilityMiles, Min VisibilityMiles, Max Wind SpeedMPH, Mean Wind SpeedMPH, Max Gust SpeedMPH,PrecipitationIn, CloudCover, Events, WindDirDegrees
2013-10-1,84,69,54,56,50,42,93,62,30,30.01,29.94,29.86,10,10,10,18,8,22,0.00,1,,317
2013-10-2,84,65,46,46,41,19,80,45,9,29.99,29.93,29.86,10,10,10,18,6,23,0.00,0,,318
2013-10-3,80,60,40,41,35,26,79,48,16,30.01,29.95,29.86,10,10,10,17,5,,0.00,0,,360
2013-10-4,85,62,38,34,25,18,65,37,8,30.09,30.01,29.95,10,10,10,18,5,23,0.00,0,,81
2013-10-5,87,64,41,28,23,14,49,28,6,30.20,30.13,30.08,10,10,10,21,6,25,0.00,0,,69
2013-10-6,90,66,41,28,21,12,45,26,6,30.15,30.07,29.98,10,10,10,14,2,21,0.00,0,,177
2013-10-7,87,65,43,39,26,17,47,28,9,30.00,29.94,29.87,10,10,10,18,6,23,0.00,0,,193
2013-10-8,77,58,39,48,35,25,83,49,15,29.91,29.84,29.76,10,10,10,24,8,28,0.00,0,,196
2013-10-9,57,50,43,47,45,41,92,77,61,29.80,29.71,29.65,10,10,6,16,7,21,0.02,5,Rain,204
2013-10-10,73,55,36,47,43,35,93,66,38,30.03,29.92,29.81,10,10,10,20,8,24,0.00,0,,161
2013-10-11,78,59,40,46,42,31,100,59,18,30.08,30.03,29.93,10,7,1,12,3,29,0.00,4,,230
2013-10-12,80,59,38,43,39,34,86,53,19,30.02,29.96,29.87,10,10,10,15,4,,0.00,0,,296
2013-10-13,75,56,37,45,41,34,82,55,27,30.06,29.98,29.92,10,10,10,12,4,,0.00,0,,289
2013-10-14,81,60,39,39,35,31,76,46,16,30.11,30.04,29.96,10,10,10,17,5,28,0.00,0,,77
2013-10-15,84,62,39,36,31,26,67,40,13,30.04,29.98,29.91,10,10,10,16,5,20,0.00,0,,76
2013-10-16,85,63,41,34,28,21,62,36,10,30.11,30.05,29.99,10,10,10,16,3,20,0.00,0,,182
2013-10-17,85,62,38,30,27,25,51,32,13,30.11,30.02,29.93,10,10,10,12,2,,0.00,0,,247
2013-10-18,88,63,38,35,29,25,55,33,10,30.06,30.01,29.94,10,10,10,10,2,,0.00,0,,116
2013-10-19,91,65,39,36,30,20,57,33,8,30.09,30.02,29.95,10,10,10,12,1,14,0.00,0,,226
2013-10-20,88,64,39,38,31,25,62,36,10,30.03,29.96,29.86,10,10,10,13,2,14,0.00,0,,347
2013-10-21,87,63,38,44,33,20,71,40,8,30.00,29.94,29.86,10,10,10,10,2,17,0.00,0,,247
2013-10-22,84,62,40,44,37,32,76,46,15,30.02,29.96,29.87,10,10,9,12,2,,0.00,0,,257
2013-10-23,86,64,42,47,41,34,86,53,19,29.97,29.92,29.84,10,10,10,17,3,20,0.00,0,,205
2013-10-24,75,61,47,47,46,42,100,67,33,30.09,30.00,29.96,10,4,0,13,4,16,0.00,3,Fog,290
2013-10-25,85,64,43,46,42,35,100,59,17,30.18,30.11,30.02,10,6,0,12,2,,0.00,2,Fog,353
2013-10-26,86,62,38,43,38,31,82,49,16,30.14,30.07,29.97,10,10,10,22,2,60,0.00,0,,58
2013-10-27,78,59,39,47,41,32,83,56,28,30.02,29.89,29.78,10,10,10,21,6,26,0.00,1,,222
2013-10-28,62,56,49,48,45,39,83,69,55,29.89,29.79,29.75,10,10,6,23,9,29,T,6,Rain,225
2013-10-29,65,57,48,47,45,42,86,67,48,30.04,29.96,29.90,10,10,10,14,6,16,0.00,5,,229
2013-10-30,69,52,35,43,39,33,92,63,33,30.14,30.09,30.03,10,9,2,14,3,18,0.00,1,,68
2013-10-31,73,54,35,41,36,31,85,56,27,30.18,30.11,30.04,10,10,10,13,5,20,0.00,0,,92